Location: Marcé
(47.5801°N, 0.3280°W)
Time: 14:25:25
(UTC+01:00)

Vanguard 3 - Pass Details

Date: 08 December 2021
Orbit: 508 x 3260 km, 33.3° (Epoch: 20 January)

Event Time Altitude Azimuth Distance (km) Brightness Sun altitude
Rises 00:17:45 0° 176° (S) 6,107 - -64.1°
Reaches altitude 10° 00:24:58 10° 154° (SSE) 5,623 - -64.5°
Maximum altitude 00:32:11 14° 129° (SE) 5,649 - -64.8°
Drops below altitude 10° 00:39:58 10° 105° (ESE) 6,181 - -65.0°
Exits shadow 00:42:28 - 99° (E) 6,435 11.6 -65.0°
Sets 00:48:40 0° 85° (E) 7,183 12.0 -65.1°
